Date String (YYYY-MM-DD hh:mm:ss) UTC,Instrument flags,Ambient pressure (hPa),Sample flow (lpm),Bypass flow (lpm),Sample temperature (°C),Ambient temperature (°C),ASC tube jacket temperature (°C),LED temperature (°C),Box temperature (°C),Sample RH (%),Span deviation,Mass concentration (μg/m³),Mass concentration (μg/m³),Mass concentration (μg/m³)
DateTimeUTC,F1_M11,P_M11,Q1_M11,Q2_M11,T1_M11,T2_M11,T3_M11,T4_M11,T5_M11,U1_M11,ZSPAN_M11,X0_M11,X2_M11,X1_M11
2023-05-18 00:00:00,,0827.8,5.01,0.00,29.4,27.9,00.0,37.6,31.1,20.3,0000.0,0011.91,0004.67,0003.54
2023-05-18 00:01:00,,0827.8,5.01,0.00,29.4,28.0,00.0,37.7,31.2,21.0,0000.0,0011.85,0004.65,0003.54
2023-05-18 00:02:00,,0827.8,4.99,0.00,29.5,28.2,00.0,37.7,31.2,21.2,0000.0,0012.33,0004.61,0003.54
2023-05-18 00:03:00,,0827.8,5.00,0.00,29.5,28.3,00.0,37.7,31.3,20.4,0000.0,0012.52,0004.61,0003.55
2023-05-18 00:04:00,,0827.8,5.00,0.00,29.5,27.7,00.0,37.7,31.2,20.1,0000.0,0011.96,0004.58,0003.54
2023-05-18 00:05:00,,0827.8,5.00,0.00,29.5,26.1,00.0,37.6,30.9,19.9,0000.0,0011.65,0004.50,0003.52
2023-05-18 00:06:00,,0827.8,5.01,0.00,29.4,25.8,00.0,37.6,30.8,20.1,0000.0,0011.70,0004.54,0003.52
2023-05-18 00:07:00,,0827.7,5.00,0.00,29.3,25.9,00.0,37.6,30.7,19.4,0000.0,0011.28,0004.56,0003.52
2023-05-18 00:08:00,,0827.8,5.00,0.00,29.3,26.2,00.0,37.6,30.8,20.0,0000.0,0011.00,0004.55,0003.52
2023-05-18 00:09:00,,0827.8,5.01,0.00,29.3,26.6,00.0,37.6,30.8,19.9,0000.0,0010.28,0004.51,0003.51
2023-05-18 00:10:00,,0827.8,5.00,0.00,29.3,26.9,00.0,37.6,30.9,19.4,0000.0,0009.68,0004.47,0003.50
2023-05-18 00:11:00,,0827.8,5.00,0.00,29.3,27.1,00.0,37.6,30.9,20.7,0000.0,0009.50,0004.41,0003.49
2023-05-18 00:12:00,,0827.8,4.99,0.00,29.3,27.4,00.0,37.6,31.0,20.2,0000.0,0009.39,0004.39,0003.48
2023-05-18 00:13:00,,0827.7,5.01,0.00,29.3,27.6,00.0,37.6,31.1,19.3,0000.0,0008.84,0004.37,0003.48
2023-05-18 00:14:00,,0827.7,4.99,0.00,29.4,27.8,00.0,37.6,31.1,19.5,0000.0,0008.93,0004.39,0003.47
2023-05-18 00:15:00,,0827.7,4.99,0.00,29.4,27.9,00.0,37.7,31.1,19.2,0000.0,0008.95,0004.36,0003.46
2023-05-18 00:16:00,,0827.7,5.01,0.00,29.4,28.1,00.0,37.7,31.2,19.0,0000.0,0008.96,0004.38,0003.47
2023-05-18 00:17:00,,0827.7,5.00,0.00,29.5,28.2,00.0,37.7,31.2,18.8,0000.0,0009.29,0004.36,0003.47
2023-05-18 00:18:00,,0827.7,4.98,0.00,29.5,28.3,00.0,37.7,31.3,18.1,0000.0,0009.33,0004.35,0003.47
2023-05-18 00:19:00,,0827.7,5.00,0.00,29.5,28.2,00.0,37.7,31.3,18.0,0000.0,0009.33,0004.35,0003.47
2023-05-18 00:20:00,,0827.7,4.99,0.00,29.5,26.7,00.0,37.7,31.1,17.5,0000.0,0009.44,0004.35,0003.47
2023-05-18 00:21:00,,0827.7,5.01,0.00,29.5,25.8,00.0,37.6,30.9,17.7,0000.0,0009.56,0004.37,0003.47
2023-05-18 00:22:00,,0827.7,5.01,0.00,29.4,25.8,00.0,37.6,30.8,18.0,0000.0,0009.70,0004.42,0003.49
2023-05-18 00:23:00,,0827.7,5.00,0.00,29.3,26.0,00.0,37.6,30.8,18.1,0000.0,0009.82,0004.48,0003.49
2023-05-18 00:24:00,,0827.7,5.00,0.00,29.3,26.4,00.0,37.6,30.8,17.8,0000.0,0010.35,0004.52,0003.49
2023-05-18 00:25:00,,0827.7,5.00,0.00,29.3,26.7,00.0,37.6,30.9,17.6,0000.0,0010.68,0004.52,0003.50
2023-05-18 00:26:00,,0827.7,4.99,0.00,29.3,27.0,00.0,37.6,30.9,17.4,0000.0,0010.53,0004.53,0003.51
2023-05-18 00:27:00,,0827.7,5.00,0.00,29.3,27.3,00.0,37.6,31.0,17.3,0000.0,0010.58,0004.54,0003.51
2023-05-18 00:28:00,,0827.7,5.00,0.00,29.4,27.5,00.0,37.7,31.0,17.3,0000.0,0010.37,0004.58,0003.51
2023-05-18 00:29:00,,0827.7,5.00,0.00,29.4,27.7,00.0,37.7,31.1,17.1,0000.0,0010.07,0004.58,0003.52
2023-05-18 00:30:00,,0827.7,5.01,0.00,29.4,27.9,00.0,37.7,31.1,17.1,0000.0,0009.99,0004.53,0003.52
2023-05-18 00:31:00,,0827.7,4.99,0.00,29.4,28.0,00.0,37.7,31.2,17.0,0000.0,0010.58,0004.52,0003.53
2023-05-18 00:32:00,,0827.7,4.99,0.00,29.5,28.1,00.0,37.7,31.2,17.1,0000.0,0010.53,0004.52,0003.53
2023-05-18 00:33:00,,0827.6,5.01,0.00,29.5,28.3,00.0,37.7,31.2,17.1,0000.0,0010.77,0004.48,0003.51
2023-05-18 00:34:00,,0827.6,5.02,0.00,29.5,28.4,00.0,37.8,31.3,17.3,0000.0,0011.21,0004.45,0003.49
2023-05-18 00:35:00,,0827.6,4.99,0.00,29.6,27.6,00.0,37.7,31.2,17.5,0000.0,0010.68,0004.40,0003.49
2023-05-18 00:36:00,,0827.5,4.99,0.00,29.5,26.0,00.0,37.7,31.0,17.9,0000.0,0010.27,0004.38,0003.48
2023-05-18 00:37:00,,0827.5,5.01,0.00,29.5,25.7,00.0,37.6,30.9,18.3,0000.0,0010.09,0004.36,0003.46
2023-05-18 00:38:00,,0827.5,5.01,0.00,29.4,25.9,00.0,37.6,30.8,18.0,0000.0,0010.06,0004.36,0003.46
2023-05-18 00:39:00,,0827.5,5.00,0.00,29.3,26.2,00.0,37.6,30.8,17.9,0000.0,0009.89,0004.31,0003.44
2023-05-18 00:40:00,,0827.5,5.00,0.00,29.3,26.6,00.0,37.6,30.9,18.0,0000.0,0009.79,0004.27,0003.44
2023-05-18 00:41:00,,0827.5,5.00,0.00,29.3,26.9,00.0,37.6,30.9,18.0,0000.0,0009.89,0004.30,0003.43
2023-05-18 00:42:00,,0827.6,5.00,0.00,29.3,27.2,00.0,37.6,31.0,17.2,0000.0,0009.31,0004.33,0003.42
2023-05-18 00:43:00,,0827.7,5.00,0.00,29.4,27.4,00.0,37.7,31.0,17.2,0000.0,0009.46,0004.32,0003.41
2023-05-18 00:44:00,,0827.7,5.00,0.00,29.4,27.6,00.0,37.7,31.1,17.3,0000.0,0009.75,0004.36,0003.41
2023-05-18 00:45:00,,0827.7,5.00,0.00,29.4,27.8,00.0,37.7,31.1,17.5,0000.0,0009.35,0004.39,0003.41
2023-05-18 00:46:00,,0827.7,5.00,0.00,29.4,28.0,00.0,37.7,31.2,17.5,0000.0,0009.46,0004.42,0003.42
2023-05-18 00:47:00,,0827.7,5.00,0.00,29.5,28.1,00.0,37.7,31.2,17.6,0000.0,0009.54,0004.43,0003.42
2023-05-18 00:48:00,,0827.7,4.99,0.00,29.5,28.2,00.0,37.7,31.2,17.9,0000.0,0009.73,0004.45,0003.43
2023-05-18 00:49:00,,0827.8,5.00,0.00,29.5,28.3,00.0,37.8,31.3,18.2,0000.0,0009.88,0004.45,0003.43
2023-05-18 00:50:00,,0827.8,5.00,0.00,29.6,28.2,00.0,37.8,31.3,18.3,0000.0,0010.28,0004.45,0003.44
2023-05-18 00:51:00,,0827.7,5.00,0.00,29.5,26.6,00.0,37.7,31.1,18.4,0000.0,0010.53,0004.47,0003.44
2023-05-18 00:52:00,,0827.7,5.00,0.00,29.5,25.7,00.0,37.7,31.0,19.6,0000.0,0010.63,0004.50,0003.44
2023-05-18 00:53:00,,0827.7,5.01,0.00,29.4,25.8,00.0,37.6,30.8,19.4,0000.0,0011.09,0004.55,0003.45
2023-05-18 00:54:00,,0827.7,5.02,0.00,29.3,26.0,00.0,37.6,30.8,19.6,0000.0,0010.99,0004.57,0003.47
2023-05-18 00:55:00,,0827.7,5.00,0.00,29.3,26.4,00.0,37.6,30.8,19.6,0000.0,0010.61,0004.56,0003.48
2023-05-18 00:56:00,,0827.7,4.99,0.00,29.3,26.7,00.0,37.6,30.9,19.6,0000.0,0010.35,0004.53,0003.49
2023-05-18 00:57:00,,0827.7,5.00,0.00,29.3,27.0,00.0,37.6,30.9,19.7,0000.0,0010.36,0004.57,0003.49
2023-05-18 00:58:00,,0827.7,5.00,0.00,29.3,27.3,00.0,37.7,31.0,19.8,0000.0,0010.46,0004.58,0003.49
2023-05-18 00:59:00,,0827.7,5.01,0.00,29.4,27.5,00.0,37.7,31.0,20.1,0000.0,0010.42,0004.60,0003.48
